Hourly Data Report for November 15, 2016

VICTORIA UNIVERSITY CS
BRITISH COLUMBIA

48°27'25.200" N
123°18'16.600" W
60.10 m
1018598
71783
WYJ

Download Data

Hourly Data (November 2016)
Hourly Data Report for November 15, 2016
TIME
LST
Temp Definition
°C
Dew Point Definition
°C
Rel Hum Definition
%
Precip. Amount Definition
mm

Wind Dir Definition
10's deg

Wind Spd Definition
km/h
Visibility Definition
km
Stn Press Definition
kPa
Hmdx Definition


Wind Chill Definition


Weather Definition


00:00 8.5 7.1 91 0.0 36 9   100.17     LegendNANA
01:00 8.8 7.0 89 0.0 1 6   100.09     LegendNANA
02:00 8.9 6.8 87 0.0 35 10   100.00     LegendNANA
03:00 8.5 6.7 88 0.0 32 9   99.95     LegendNANA
04:00 7.9 7.1 95 0.9 36 9   99.84     LegendNANA
05:00 7.6 7.1 97 0.3 32 6   99.81     LegendNANA
06:00 7.3 6.8 96 0.0 27 4   99.84     LegendNANA
07:00 7.1 6.7 97 0.0 28 5   99.86     LegendNANA
08:00 7.4 7.0 97 0.0 22 3   100.00     LegendNANA
09:00 7.8 7.4 97 0.3 16 3   100.07     LegendNANA
10:00 9.1 8.3 95 0.0 21 7   100.11     LegendNANA
11:00 11.6 8.3 81 0.0 23 13   100.13     LegendNANA
12:00 12.2 6.9 70 0.0 24 11   100.12     LegendNANA
13:00 10.7 6.0 73 0.0 25 11   100.19     LegendNANA
14:00 10.9 6.9 77 0.0 25 7   100.19     LegendNANA
15:00 9.2 7.1 87 0.0 26 6   100.20     LegendNANA
16:00 7.8 6.1 89 0.5 26 13   100.28     LegendNANA
17:00 6.9 6.0 94 0.6 26 5   100.26     LegendNANA
18:00 7.2 6.1 93 0.0 24 8   100.27     LegendNANA
19:00 7.1 6.1 93 0.2 24 9   100.32     LegendNANA
20:00 7.3 5.4 88 0.0 26 12   100.36     LegendNANA
21:00 7.3 5.0 85 0.0 24 6   100.42     LegendNANA
22:00 7.3 4.5 82 0.0 25 9   100.45     LegendNANA
23:00 6.5 4.6 88 0.0 26 8   100.50     LegendNANA

Notes on Data Quality.

Legend

  • E = Estimated
  • M = Missing
  • NA = Not Available*
  • [empty] = Indicates an unobserved value
Date modified: